1491966001.22,19013,13.0,73248.5,-7.05,-33.77,-34.35,0,*59
1491966002.45,19014,13.0,73254.0,-7.05,-33.83,-34.47,0,*50
1491966003.7,19015,13.0,73258.5,-7.05,-33.83,-34.35,0,*54
1491966004.94,19016,13.0,73262.5,-7.05,-33.83,-34.47,0,*52
1491966006.2,19017,13.0,73266.0,-7.07,-34.01,-34.53,0,*59
1491966007.46,19018,13.0,73264.8,-7.07,-33.89,-34.53,0,*51
1491966008.66,19019,13.0,73266.3,-7.07,-33.83,-34.41,0,*59
1491966009.94,19020,13.0,73270.5,-7.05,-33.73,-34.31,0,*59
1491966011.22,19021,13.0,73262.5,-7.05,-33.77,-34.35,0,*58
1491966012.49,19022,13.0,73262.8,-7.05,-33.77,-34.35,0,*5B
1491966013.76,19023,13.0,73260.3,-7.05,-33.77,-34.35,0,*5A
1491966014.99,19024,13.0,73264.5,-7.07,-33.83,-34.35,0,*54
1491966016.24,19025,13.0,73268.0,-7.09,-33.77,-34.41,0,*53
1491966017.44,19026,13.0,73264.8,-7.07,-33.83,-34.41,0,*55
1491966018.72,19027,13.0,73266.8,-7.09,-33.77,-34.35,0,*52
1491966019.97,19028,13.0,73264.3,-7.09,-33.89,-34.41,0,*5F
1491966021.22,19029,13.0,73264.0,-7.07,-33.89,-34.53,0,*53
1491966022.48,19030,13.0,73260.5,-7.07,-34.01,-34.53,0,*5C
1491966023.75,19031,13.0,73260.5,-7.07,-34.01,-34.53,0,*5D
1491966025.0,19032,13.0,73254.8,-7.07,-33.89,-34.53,0,*59
1491966026.25,19033,13.0,73264.5,-7.09,-33.89,-34.41,0,*55
1491966027.5,19034,13.0,73264.8,-7.07,-33.89,-34.53,0,*5F
1491966028.77,19035,13.0,73268.0,-7.07,-34.01,-34.53,0,*59
1491966030.0,19036,13.0,73260.3,-7.09,-34.07,-34.71,0,*52
1491966031.24,19037,13.0,73260.8,-7.09,-34.07,-34.59,0,*59
1491966032.48,19038,13.0,73268.5,-7.07,-33.89,-34.35,0,*53
1491966033.76,19039,13.0,73262.0,-7.09,-33.89,-34.35,0,*5C
1491966034.98,19040,13.0,73260.3,-7.09,-33.83,-34.41,0,*5B
1491966036.21,19041,13.0,73264.5,-7.09,-33.67,-34.07,0,*52
1491966037.44,19042,13.0,73266.5,-7.09,-33.67,-34.25,0,*51
1491966038.71,19043,13.0,73260.3,-7.09,-33.77,-34.35,0,*50
1491966039.97,19044,13.0,73262.3,-7.09,-33.83,-34.35,0,*5C
1491966041.22,19045,13.0,73252.0,-7.09,-33.83,-34.35,0,*5D
1491966042.44,19046,13.0,73260.8,-7.07,-33.89,-34.41,0,*59
1491966043.69,19047,13.0,73258.3,-7.09,-33.89,-34.41,0,*56
1491966044.9,19048,13.0,73254.5,-7.11,-34.07,-34.47,0,*57
1491966046.11,19049,13.0,73252.5,-7.11,-34.07,-34.59,0,*59
1491966047.32,19050,13.0,73252.0,-7.11,-34.07,-34.77,0,*5D
1491966048.52,19051,13.0,73252.8,-7.11,-33.95,-34.77,0,*50
1491966049.78,19052,13.0,73252.3,-7.13,-34.13,-34.65,0,*5B
1491966050.99,19053,13.0,73256.3,-7.11,-34.07,-34.59,0,*52
1491966052.2,19054,13.0,73264.5,-7.11,-33.95,-34.47,0,*56
1491966053.41,19055,13.0,73266.3,-7.11,-33.95,-34.47,0,*57
1491966054.64,19056,13.0,73264.3,-7.13,-34.07,-34.59,0,*55
1491966055.84,19057,13.0,73270.0,-7.11,-33.95,-34.47,0,*55
1491966057.06,19058,13.0,73270.3,-7.11,-34.07,-34.47,0,*56
1491966058.29,19059,13.0,73270.0,-7.13,-34.07,-34.47,0,*55
1491966059.52,19060,13.0,73256.8,-7.13,-33.95,-34.47,0,*53
1491966060.73,19061,13.0,73244.3,-7.11,-33.95,-34.47,0,*50
1491966061.96,19062,13.0,73256.0,-7.13,-34.07,-34.47,0,*5D
1491966063.2,19063,13.0,73268.5,-7.13,-34.13,-34.47,0,*59
1491966064.4,19064,13.0,73258.0,-7.11,-33.83,-34.25,0,*56
1491966065.64,19065,13.0,73270.5,-7.13,-33.89,-34.41,0,*5D
1491966066.86,19066,13.0,73260.3,-7.11,-33.89,-34.41,0,*5C
1491966068.14,19067,13.0,73248.8,-7.13,-33.49,-33.89,0,*50
1491966069.42,19068,13.0,73248.5,-7.13,-33.31,-33.73,0,*55
1491966070.65,19069,13.0,73246.3,-7.11,-33.73,-34.07,0,*54
1491966071.9,19070,13.0,73258.5,-7.13,-33.73,-34.25,0,*5E
1491966073.14,19071,13.0,73258.3,-7.11,-33.73,-34.07,0,*5D
1491966074.36,19072,13.0,73252.0,-7.13,-33.67,-33.95,0,*55
1491966075.57,19073,13.0,73254.3,-7.11,-33.67,-34.07,0,*5A
1491966076.82,19074,13.0,73256.5,-7.13,-33.73,-34.07,0,*5A
1491966078.05,19075,13.0,73250.3,-7.13,-33.83,-34.13,0,*51
1491966079.3,19076,13.0,73250.3,-7.13,-33.89,-34.41,0,*5F
1491966080.55,19077,13.0,73250.0,-7.13,-33.83,-34.31,0,*53
1491966081.77,19078,13.0,73248.8,-7.11,-33.95,-34.31,0,*59
1491966082.99,19079,13.0,73258.8,-7.13,-33.95,-34.41,0,*5D
1491966084.26,19080,13.0,73252.3,-7.13,-33.89,-34.31,0,*51
1491966085.5,19081,13.0,73256.3,-7.13,-33.89,-34.41,0,*57
1491966086.72,19082,13.0,73258.8,-7.13,-34.07,-34.41,0,*55
1491966087.95,19083,13.0,73264.8,-7.13,-33.95,-34.47,0,*5E
1491966089.21,19084,13.0,73262.5,-7.15,-34.01,-34.35,0,*50
1491966090.45,19085,13.0,73264.0,-7.15,-34.01,-34.47,0,*54
1491966091.7,19086,13.0,73264.8,-7.15,-34.01,-34.35,0,*52
1491966092.92,19087,13.0,73268.0,-7.15,-34.13,-34.47,0,*55
1491966094.15,19088,13.0,73266.3,-7.15,-34.01,-34.47,0,*59
1491966095.41,19089,13.0,73266.0,-7.15,-34.01,-34.35,0,*5D
1491966096.63,19090,13.0,73268.0,-7.15,-33.95,-34.35,0,*5F
1491966097.91,19091,13.0,73266.8,-7.17,-33.89,-34.19,0,*5F
1491966099.14,19092,13.0,73266.8,-7.17,-33.95,-34.47,0,*5A
1491966100.38,19093,13.0,73260.3,-7.17,-34.13,-34.47,0,*52
1491966101.6,19094,13.0,73270.3,-7.15,-34.13,-34.47,0,*57
1491966102.88,19095,13.0,73260.0,-7.17,-34.01,-34.35,0,*52
1491966104.16,19096,13.0,73262.0,-7.17,-34.01,-34.35,0,*51
1491966105.44,19097,13.0,73264.0,-7.17,-34.01,-34.35,0,*50
1491966106.7,19098,13.0,73268.3,-7.17,-33.77,-34.13,0,*5D
1491966107.97,19099,13.0,73264.0,-7.17,-34.01,-34.47,0,*5B
1491966109.22,19100,13.0,73272.5,-7.17,-33.95,-34.35,0,*55
1491966110.51,19101,13.0,73264.8,-7.17,-33.73,-34.01,0,*5B
1491966111.78,19102,13.0,73272.0,-7.17,-33.73,-34.13,0,*5B
1491966113.05,19103,13.0,73274.0,-7.17,-33.89,-34.31,0,*5F
1491966114.31,19104,13.0,73270.3,-7.17,-33.61,-34.13,0,*5E
1491966115.56,19105,13.0,73262.5,-7.15,-33.43,-33.89,0,*59
1491966116.84,19106,13.0,73266.5,-7.17,-33.43,-33.89,0,*58
1491966118.13,19107,13.0,73268.0,-7.17,-33.27,-33.73,0,*5E
1491966119.36,19108,13.0,73264.8,-7.15,-33.21,-33.61,0,*56
1491966120.59,19109,13.0,73258.8,-7.15,-33.21,-33.61,0,*57
1491966121.8,19110,13.0,73258.8,-7.15,-33.03,-33.37,0,*5C
1491966123.09,19111,13.0,73256.0,-7.17,-32.85,-33.27,0,*51
1491966124.34,19112,13.0,73252.8,-7.15,-33.43,-33.73,0,*5A
1491966125.6,19113,13.0,73252.5,-7.15,-33.43,-33.77,0,*5F
1491966126.85,19114,13.0,73258.8,-7.15,-33.61,-34.01,0,*5E
1491966128.12,19115,13.0,73258.3,-7.15,-33.73,-34.01,0,*5C
1491966129.35,19116,13.0,73252.3,-7.15,-33.77,-34.13,0,*58
1491966130.58,19117,13.0,73252.5,-7.15,-33.95,-34.31,0,*55
1491966131.8,19118,13.0,73256.3,-7.15,-33.95,-34.31,0,*5A
1491966133.06,19119,13.0,73254.3,-7.15,-33.77,-34.01,0,*54
1491966134.33,19120,13.0,73278.5,-7.15,-33.73,-34.01,0,*5A
1491966135.59,19121,13.0,73264.3,-7.15,-33.77,-34.01,0,*5F
1491966136.82,19122,13.0,73250.5,-7.17,-33.55,-33.95,0,*54
1491966138.07,19123,13.0,73266.3,-7.15,-33.43,-33.77,0,*5C
1491966139.33,19124,13.0,73264.8,-7.15,-33.43,-33.77,0,*5B
1491966140.58,19125,13.0,73266.0,-7.17,-33.55,-33.89,0,*5E
1491966141.81,19126,13.0,73266.5,-7.15,-33.55,-33.89,0,*5F
1491966143.05,19127,13.0,73270.8,-7.15,-33.03,-33.43,0,*5B
1491966144.26,19128,13.0,73264.8,-7.15,-33.03,-33.37,0,*57
1491966145.51,19129,13.0,73268.8,-7.13,-33.03,-33.31,0,*56
1491966146.77,19130,13.0,73262.5,-7.13,-32.79,-33.21,0,*53
1491966148.0,19131,13.0,73256.0,-7.11,-32.85,-33.21,0,*53
1491966149.23,19132,13.0,73258.8,-7.13,-33.21,-33.55,0,*5E
1491966150.46,19133,13.0,73254.3,-7.11,-33.31,-33.55,0,*5C
1491966151.69,19134,13.0,73260.5,-7.11,-33.31,-33.67,0,*5A
1491966152.92,19135,13.0,73256.0,-7.11,-33.31,-33.67,0,*5B
1491966154.15,19136,13.0,73258.5,-7.11,-33.49,-33.83,0,*5D
1491966155.43,19137,13.0,73258.5,-7.09,-33.61,-33.89,0,*55
1491966156.63,19138,13.0,73252.0,-7.11,-33.83,-34.25,0,*5E
1491966157.88,19139,13.0,73254.5,-7.09,-33.83,-34.19,0,*59
1491966159.08,19140,13.0,73266.0,-7.11,-33.83,-34.25,0,*51
1491966160.34,19141,13.0,73266.8,-7.13,-33.73,-34.07,0,*5D
1491966161.54,19142,13.0,73266.0,-7.11,-33.83,-34.07,0,*53
1491966162.78,19143,13.0,73260.3,-7.11,-33.73,-33.95,0,*51
1491966164.0,19144,13.0,73268.5,-7.11,-33.55,-33.73,0,*5A
1491966165.23,19145,13.0,73260.8,-7.11,-33.15,-33.49,0,*56
1491966166.43,19146,13.0,73254.0,-7.11,-33.55,-33.83,0,*57
1491966167.66,19147,13.0,73246.5,-7.11,-33.55,-33.73,0,*59
1491966168.86,19148,13.0,73272.0,-7.11,-33.83,-34.07,0,*59
1491966170.09,19149,13.0,73262.0,-7.11,-33.49,-33.83,0,*55
1491966171.33,19150,13.0,73270.8,-7.11,-33.37,-33.73,0,*5B
1491966172.6,19151,13.0,73278.3,-7.09,-33.61,-33.89,0,*55
1491966173.85,19152,13.0,73266.8,-7.09,-33.15,-33.61,0,*53
1491966175.13,19153,13.0,73268.0,-7.09,-33.27,-33.49,0,*59
1491966176.41,19154,13.0,73272.0,-7.09,-33.61,-33.89,0,*50
1491966177.67,19155,13.0,73270.5,-7.09,-33.83,-34.01,0,*5A
1491966178.92,19156,13.0,73268.8,-7.09,-33.77,-34.07,0,*54
1491966180.2,19157,13.0,73274.8,-7.09,-33.77,-33.89,0,*54
1491966181.42,19158,13.0,73266.0,-7.13,-33.15,-33.55,0,*55
1491966182.68,19159,13.0,73262.8,-7.11,-32.97,-33.31,0,*5F
1491966183.97,19160,13.0,73268.8,-7.09,-32.79,-33.27,0,*5B
1491966185.2,19161,13.0,73262.5,-7.07,-33.15,-33.31,0,*58
1491966186.48,19162,13.0,73258.8,-7.09,-33.31,-33.77,0,*51
1491966187.76,19163,13.0,73256.3,-7.09,-33.27,-33.61,0,*50
1491966189.03,19164,13.0,73258.0,-7.09,-33.43,-33.77,0,*52
1491966190.32,19165,13.0,73256.8,-7.09,-33.77,-34.01,0,*52
1491966191.57,19166,13.0,73262.3,-7.07,-33.61,-33.77,0,*5E
1491966192.85,19167,13.0,73264.0,-7.09,-33.77,-33.89,0,*57
1491966194.08,19168,13.0,73260.8,-7.09,-33.83,-34.07,0,*52
1491966195.35,19169,13.0,73260.5,-7.09,-33.89,-34.19,0,*56
1491966196.6,19170,13.0,73262.5,-7.09,-33.89,-34.25,0,*51
1491966197.85,19171,13.0,73258.3,-7.09,-33.77,-34.07,0,*51
1491966199.13,19172,13.0,73266.3,-7.09,-33.61,-34.01,0,*53
1491966200.42,19173,13.0,73278.0,-7.09,-33.49,-33.77,0,*5E
1491966201.65,19174,13.0,73276.8,-7.11,-33.31,-33.55,0,*5F
1491966202.9,19175,13.0,73276.5,-7.11,-33.49,-33.89,0,*50
1491966204.13,19176,13.0,73276.8,-7.11,-33.67,-33.89,0,*5F
1491966205.37,19177,13.0,73274.3,-7.11,-33.49,-33.83,0,*58
1491966206.64,19178,13.0,73268.5,-7.09,-33.43,-33.61,0,*58
1491966207.89,19179,13.0,73266.0,-7.09,-33.61,-33.83,0,*55
1491966209.15,19180,13.0,73274.0,-7.09,-33.67,-33.89,0,*5F
1491966210.43,19181,13.0,73268.8,-7.09,-33.77,-34.01,0,*58
1491966211.68,19182,13.0,73268.3,-7.09,-33.61,-33.83,0,*51
1491966212.91,19183,13.0,73270.8,-7.09,-33.83,-34.07,0,*57
1491966214.12,19184,13.0,73270.3,-7.11,-33.83,-34.13,0,*5C
1491966215.37,19185,13.0,73264.8,-7.13,-33.73,-34.07,0,*55
1491966216.59,19186,13.0,73264.8,-7.11,-33.89,-34.25,0,*51
1491966217.8,19187,13.0,73260.5,-7.11,-33.83,-34.07,0,*5A
1491966219.02,19188,13.0,73250.3,-7.11,-33.89,-34.25,0,*5F
1491966220.22,19189,13.0,73262.3,-7.11,-33.83,-34.25,0,*54
1491966221.44,19190,13.0,73262.5,-7.11,-33.83,-34.31,0,*59
1491966222.69,19191,13.0,73268.5,-7.13,-33.89,-34.13,0,*50
1491966223.92,19192,13.0,73270.8,-7.13,-33.83,-34.13,0,*59
1491966225.15,19193,13.0,73272.5,-7.13,-33.83,-33.95,0,*51
1491966226.37,19194,13.0,73262.3,-7.13,-33.55,-33.83,0,*5A
1491966227.65,19195,13.0,73262.0,-7.13,-33.49,-33.73,0,*59
1491966228.85,19196,13.0,73262.5,-7.11,-33.55,-33.83,0,*5A
1491966230.11,19197,13.0,73260.8,-7.13,-33.67,-33.89,0,*52
1491966231.31,19198,13.0,73260.3,-7.11,-33.67,-33.95,0,*52
1491966232.54,19199,13.0,73260.8,-7.13,-33.83,-34.07,0,*57
1491966233.79,19200,13.0,73258.3,-7.13,-33.73,-33.95,0,*57
1491966235.03,19201,13.0,73258.8,-7.13,-33.89,-34.25,0,*5F
1491966236.3,19202,13.0,73256.0,-7.13,-33.89,-34.31,0,*59
1491966237.55,19203,13.0,73256.5,-7.13,-33.89,-34.25,0,*5D
1491966238.75,19204,13.0,73256.5,-7.11,-33.83,-34.13,0,*57
1491966239.98,19205,13.0,73260.8,-7.13,-33.83,-34.13,0,*54
1491966241.21,19206,13.0,73262.0,-7.13,-33.83,-34.07,0,*52
1491966242.46,19207,13.0,73266.5,-7.13,-33.89,-34.13,0,*5C
1491966243.7,19208,13.0,73264.5,-7.13,-33.89,-34.25,0,*56
1491966244.93,19209,13.0,73274.8,-7.13,-33.83,-33.95,0,*51
1491966246.18,19210,13.0,73274.3,-7.13,-33.67,-33.89,0,*5E
1491966247.42,19211,13.0,73270.3,-7.11,-33.49,-33.67,0,*51
1491966248.7,19212,13.0,73260.5,-7.13,-33.49,-33.73,0,*55
1491966249.98,19213,13.0,73256.0,-7.13,-33.49,-33.73,0,*54
1491966251.2,19214,13.0,73256.3,-7.13,-33.55,-33.83,0,*51
1491966252.48,19215,13.0,73264.8,-7.13,-33.73,-33.89,0,*5E
1491966253.71,19216,13.0,73274.8,-7.13,-33.67,-33.83,0,*52
1491966254.92,19217,13.0,73270.5,-7.15,-33.03,-33.21,0,*5F
1491966256.14,19218,13.0,73270.5,-7.13,-33.15,-33.55,0,*52
1491966257.37,19219,13.0,73272.0,-7.11,-33.15,-33.49,0,*5C
1491966258.64,19220,13.0,73268.8,-7.13,-32.63,-32.97,0,*56
1491966259.9,19221,13.0,73268.0,-7.13,-32.57,-32.79,0,*50
1491966261.15,19222,13.0,73260.8,-7.09,-32.39,-32.63,0,*5B
1491966262.38,19223,12.94,73250.0,-7.09,-32.23,-32.57,0,*56
1491966263.64,19224,13.0,73254.5,-7.09,-32.51,-32.75,0,*54
1491966264.88,19225,13.0,73246.8,-7.07,-32.51,-32.75,0,*5B
1491966266.11,19226,13.0,73244.5,-7.07,-32.51,-32.75,0,*58
1491966267.32,19227,13.0,73240.0,-7.07,-32.91,-33.15,0,*52
1491966268.55,19228,13.0,73248.5,-7.07,-33.15,-33.49,0,*59
1491966269.8,19229,13.0,73256.8,-7.07,-33.27,-33.49,0,*59
1491966271.05,19230,13.0,73260.0,-7.07,-33.27,-33.61,0,*5B
1491966272.29,19231,12.94,73252.5,-7.05,-33.03,-33.37,0,*5D
1491966273.57,19232,13.0,73254.8,-7.05,-33.27,-33.43,0,*5B
1491966274.82,19233,13.0,73264.3,-7.05,-33.27,-33.55,0,*5D
1491966276.08,19234,13.0,73272.0,-7.05,-33.03,-33.27,0,*59
1491966277.35,19235,13.0,73272.8,-7.05,-32.69,-33.09,0,*59
1491966278.61,19236,13.0,73268.0,-7.05,-32.69,-33.09,0,*5A
1491966279.9,19237,13.0,73262.5,-7.05,-32.75,-33.27,0,*5A
1491966281.13,19238,13.0,73250.0,-7.05,-32.69,-33.03,0,*5E
1491966282.34,19239,13.0,73248.3,-7.03,-32.91,-33.37,0,*59
1491966283.6,19240,13.0,73254.3,-7.03,-33.27,-33.73,0,*5B
1491966284.85,19241,12.94,73250.5,-7.03,-33.27,-33.61,0,*59
1491966286.05,19242,13.0,73244.5,-7.03,-33.55,-33.83,0,*53
1491966287.29,19243,13.0,73234.5,-7.03,-33.37,-33.77,0,*5D
1491966288.52,19244,12.94,73252.5,-7.05,-33.55,-33.83,0,*53
1491966289.77,19245,13.0,73250.5,-7.05,-33.37,-33.77,0,*5D
1491966291.05,19246,13.0,73254.5,-7.05,-33.43,-33.77,0,*5D
1491966292.31,19247,13.0,73258.0,-7.03,-33.43,-33.77,0,*5A
1491966293.56,19248,13.0,73258.5,-7.03,-33.27,-33.61,0,*50
1491966294.79,19249,13.0,73254.3,-7.03,-33.21,-33.61,0,*57
1491966296.05,19250,13.0,73268.8,-7.05,-33.37,-33.77,0,*59
1491966297.34,19251,13.0,73268.0,-7.05,-33.09,-33.43,0,*52
1491966298.57,19252,13.0,73256.0,-7.05,-32.51,-32.91,0,*53
1491966299.78,19253,12.94,73248.3,-7.03,-32.57,-32.91,0,*52
1491966300.99,19254,13.0,73240.5,-7.03,-32.51,-32.91,0,*53
1491966302.28,19255,13.0,73228.3,-7.01,-32.85,-33.31,0,*52
1491966303.54,19256,13.0,73256.8,-7.05,-33.37,-33.73,0,*5B
1491966304.77,19257,13.0,73252.3,-7.03,-33.37,-33.73,0,*5C
1491966305.98,19258,13.0,73250.3,-7.03,-33.03,-33.37,0,*54
1491966307.21,19259,13.0,73252.8,-7.03,-33.27,-33.55,0,*57
1491966308.48,19260,13.0,73258.8,-7.03,-33.09,-33.43,0,*56
1491966309.73,19261,13.0,73258.3,-7.03,-33.09,-33.61,0,*57
1491966310.99,19262,13.0,73256.8,-7.01,-32.63,-33.03,0,*5F
1491966312.22,19263,13.0,73254.3,-7.03,-32.35,-32.75,0,*5F
1491966313.43,19264,13.0,73240.0,-7.03,-32.91,-33.37,0,*51
1491966314.66,19265,13.0,73248.0,-7.03,-33.09,-33.55,0,*54
1491966315.87,19266,13.0,73240.8,-6.99,-33.15,-33.67,0,*59
1491966317.12,19267,13.0,73220.8,-6.99,-32.97,-33.31,0,*50
1491966318.38,19268,13.0,73222.5,-7.01,-32.97,-33.37,0,*59
1491966319.63,19269,13.0,73242.3,-7.01,-33.21,-33.49,0,*5D
1491966320.84,19270,13.0,73240.8,-6.99,-33.21,-33.55,0,*58
1491966322.07,19271,13.0,73244.8,-7.01,-33.21,-33.67,0,*58
1491966323.31,19272,13.0,73258.5,-6.99,-33.31,-33.55,0,*5B
1491966324.56,19273,13.0,73252.5,-7.01,-32.63,-33.03,0,*5F
1491966325.82,19274,13.0,73260.0,-7.01,-32.63,-33.03,0,*58
1491966327.07,19275,13.0,73258.5,-7.01,-32.63,-33.15,0,*5E
1491966328.31,19276,13.0,73258.0,-7.01,-32.69,-33.15,0,*57
1491966329.54,19277,13.0,73244.8,-6.95,-32.57,-32.97,0,*5C
1491966330.8,19278,13.0,73244.5,-6.95,-33.09,-33.43,0,*51
1491966332.04,19279,13.0,73238.5,-6.99,-33.37,-33.77,0,*56
1491966333.27,19280,13.0,73240.8,-6.99,-33.37,-33.77,0,*50
1491966334.51,19281,13.0,73242.5,-6.99,-33.31,-33.67,0,*56
1491966335.74,19282,13.0,73238.0,-6.99,-32.85,-33.37,0,*5E
1491966336.95,19283,13.0,73234.0,-6.99,-33.03,-33.55,0,*54
1491966338.18,19284,13.0,73270.0,-6.99,-33.21,-33.73,0,*57
1491966339.41,19285,13.0,73266.0,-6.99,-33.15,-33.49,0,*58
1491966340.66,19286,13.0,73260.5,-7.01,-32.13,-32.45,0,*51
1491966341.89,19287,13.0,73260.8,-6.99,-32.23,-32.63,0,*57
1491966343.1,19288,13.0,73258.5,-6.99,-32.13,-32.39,0,*54
1491966344.34,19289,13.0,73260.8,-6.95,-32.07,-32.39,0,*5C
1491966345.6,19290,13.0,73258.5,-6.93,-32.23,-32.75,0,*5C
1491966346.8,19291,13.0,73256.5,-6.95,-32.23,-32.57,0,*5B
1491966348.06,19292,13.0,73254.0,-6.93,-32.39,-32.79,0,*59
1491966349.35,19293,13.0,73258.5,-6.93,-32.45,-32.75,0,*5F
1491966350.59,19294,13.0,73252.0,-6.93,-32.57,-32.91,0,*51
1491966351.85,19295,13.0,73258.5,-6.93,-32.39,-32.75,0,*52
1491966353.09,19296,13.0,73260.0,-6.91,-32.35,-32.69,0,*52
1491966354.35,19297,13.0,73262.8,-6.87,-32.35,-32.85,0,*56
1491966355.58,19298,13.0,73258.5,-6.85,-32.63,-33.03,0,*57
1491966356.85,19299,13.0,73256.0,-6.91,-33.03,-33.43,0,*50
1491966358.11,19300,13.0,73260.0,-6.87,-33.03,-33.31,0,*53
1491966359.37,19301,13.0,73266.5,-6.87,-32.97,-33.37,0,*58
1491966360.66,19302,13.0,73262.0,-6.87,-32.85,-33.31,0,*5E
1491966361.95,19303,13.0,73252.5,-6.87,-32.85,-33.31,0,*5F
1491966363.19,19304,13.0,73244.8,-6.91,-33.03,-33.37,0,*56
1491966364.43,19305,13.0,73244.0,-6.87,-33.03,-33.55,0,*54
1491966365.71,19306,13.0,73238.3,-6.91,-33.09,-33.61,0,*5D
1491966366.97,19307,13.0,73248.5,-6.87,-33.15,-33.61,0,*56
1491966368.23,19308,13.0,73254.8,-6.91,-33.09,-33.55,0,*54
1491966369.49,19309,13.0,73244.0,-6.91,-33.09,-33.55,0,*55
1491966370.72,19310,13.0,73238.8,-6.87,-33.15,-33.55,0,*57
1491966372.01,19311,13.0,73250.8,-6.91,-33.27,-33.77,0,*50
1491966373.25,19312,13.0,73246.3,-6.91,-33.37,-33.83,0,*59
1491966374.48,19313,13.0,73234.8,-6.91,-33.37,-33.83,0,*58
1491966375.74,19314,13.0,73220.3,-6.91,-33.43,-33.83,0,*5C
1491966377.03,19315,13.0,73254.5,-6.91,-33.43,-33.77,0,*56
1491966378.3,19316,13.0,73256.0,-6.91,-33.37,-33.77,0,*56
1491966379.55,19317,13.0,73250.3,-6.91,-33.21,-33.61,0,*57
1491966380.81,19318,13.0,73254.5,-6.91,-33.43,-33.83,0,*50
1491966382.07,19319,13.0,73252.8,-6.91,-33.09,-33.55,0,*54
1491966383.33,19320,13.0,73252.3,-6.91,-33.21,-33.61,0,*53
1491966384.59,19321,13.0,73252.5,-6.93,-33.31,-33.67,0,*57
1491966385.86,19322,13.0,73250.0,-6.93,-33.31,-33.67,0,*54
1491966387.12,19323,13.0,73244.0,-6.93,-33.43,-33.67,0,*50
1491966388.37,19324,13.0,73258.8,-6.93,-33.43,-33.67,0,*57
1491966389.66,19325,13.0,73254.5,-6.93,-32.75,-33.09,0,*5A
1491966390.95,19326,13.0,73256.3,-6.91,-32.75,-33.09,0,*5B
1491966392.22,19327,13.0,73248.8,-6.87,-32.79,-33.03,0,*5B
1491966393.51,19328,13.0,73252.3,-6.91,-32.85,-33.09,0,*5A
1491966394.8,19329,13.0,73252.0,-6.87,-32.45,-32.85,0,*55
1491966396.06,19330,13.0,73252.8,-6.87,-32.35,-32.79,0,*59
1491966397.32,19331,13.0,73252.0,-6.91,-32.39,-32.85,0,*50
1491966398.61,19332,13.0,73248.0,-6.87,-32.29,-32.79,0,*56
1491966399.86,19333,13.0,73242.3,-6.87,-32.35,-32.63,0,*51
1491966401.15,19334,13.0,73242.8,-6.87,-32.63,-32.85,0,*5D
1491966402.41,19335,13.0,73244.8,-6.85,-32.63,-32.97,0,*5D
1491966403.67,19336,13.0,73242.3,-6.87,-32.85,-33.03,0,*58
1491966404.93,19337,13.0,73242.3,-6.87,-32.97,-33.21,0,*5A
1491966406.22,19338,13.0,73244.5,-6.87,-32.97,-33.31,0,*54
1491966407.51,19339,13.0,73244.5,-6.87,-32.85,-33.31,0,*56
1491966408.8,19340,13.0,73244.0,-6.87,-32.85,-33.31,0,*58
1491966410.06,19341,13.0,73252.8,-6.87,-32.79,-33.03,0,*5B
1491966411.32,19342,13.0,73248.8,-6.85,-32.97,-33.31,0,*5B
1491966412.57,19343,13.0,73244.5,-6.85,-32.63,-32.97,0,*5C
1491966413.8,19344,13.0,73252.0,-6.85,-32.51,-32.97,0,*5A
1491966415.04,19345,13.0,73226.3,-6.85,-32.07,-32.35,0,*50
1491966416.29,19346,13.0,73236.0,-6.85,-32.29,-32.63,0,*5C
1491966417.5,19347,13.0,73250.5,-6.85,-32.69,-33.03,0,*5E
1491966418.77,19348,13.0,73244.5,-6.81,-32.75,-33.09,0,*52
1491966420.01,19349,13.0,73244.0,-6.81,-32.75,-33.15,0,*5E
1491966421.27,19350,13.0,73246.3,-6.81,-32.75,-33.09,0,*5B
1491966422.51,19351,13.0,73258.8,-6.81,-32.91,-33.27,0,*5C
1491966423.77,19352,13.0,73256.0,-6.81,-32.75,-33.09,0,*59
1491966425.03,19353,13.0,73246.3,-6.81,-32.63,-33.09,0,*5F
1491966426.29,19354,13.0,73246.0,-6.81,-32.75,-32.97,0,*59
1491966427.55,19355,13.0,73246.0,-6.81,-32.97,-33.31,0,*59
1491966428.81,19356,13.0,73236.3,-6.81,-32.97,-33.31,0,*5A
1491966430.05,19357,13.0,73236.3,-6.81,-33.21,-33.49,0,*58
1491966431.28,19358,13.0,73256.0,-6.81,-33.27,-33.67,0,*5D
1491966432.55,19359,13.0,73250.8,-6.81,-33.27,-33.43,0,*5A
1491966433.8,19360,13.0,73256.5,-6.81,-32.97,-33.31,0,*5F
1491966435.06,19361,13.0,73256.8,-6.81,-32.97,-33.31,0,*5E
1491966436.3,19362,13.0,73254.5,-6.85,-33.21,-33.49,0,*5A
1491966437.53,19363,13.0,73256.8,-6.81,-33.27,-33.55,0,*54
1491966438.77,19364,13.0,73248.5,-6.81,-32.79,-33.15,0,*5D
1491966440.02,19365,13.0,73244.3,-6.81,-32.97,-33.31,0,*5A
1491966441.28,19366,13.0,73240.8,-6.81,-32.97,-33.31,0,*59
1491966442.51,19367,13.0,73250.8,-6.81,-33.15,-33.49,0,*5C
1491966443.74,19368,13.0,73256.0,-6.81,-33.15,-33.49,0,*53
1491966444.98,19369,13.0,73256.0,-6.81,-33.27,-33.67,0,*5F
1491966446.25,19370,13.0,73266.3,-6.81,-33.27,-33.43,0,*51
1491966447.51,19371,13.0,73252.8,-6.81,-32.79,-33.09,0,*54
1491966448.75,19372,13.0,73240.5,-6.81,-32.39,-32.75,0,*59
1491966450.01,19373,13.0,73236.3,-6.81,-32.75,-32.97,0,*5C
1491966451.28,19374,12.94,73230.0,-6.81,-33.09,-33.43,0,*59
1491966452.51,19375,13.0,73226.5,-6.81,-32.91,-33.27,0,*5A
1491966453.77,19376,13.0,73246.8,-6.81,-32.97,-33.31,0,*58
1491966455.04,19377,13.0,73256.5,-6.81,-33.09,-33.31,0,*5F
1491966456.27,19378,13.0,73254.0,-6.81,-32.91,-33.27,0,*57
1491966457.54,19379,13.0,73252.3,-6.81,-32.75,-33.09,0,*50
1491966458.8,19380,13.0,73252.5,-6.81,-32.85,-33.27,0,*55
1491966460.02,19381,13.0,73260.0,-6.81,-33.03,-33.37,0,*5A
1491966461.27,19382,13.0,73258.8,-6.81,-33.27,-33.61,0,*5C
1491966462.51,19383,13.0,73258.0,-6.81,-33.15,-33.43,0,*5C
1491966463.72,19384,13.0,73262.8,-6.81,-33.03,-33.37,0,*5F
1491966464.96,19385,13.0,73258.3,-6.81,-33.03,-33.27,0,*5F
1491966466.25,19386,13.0,73258.5,-6.79,-32.85,-33.27,0,*54
1491966467.46,19387,13.0,73260.5,-6.81,-32.91,-33.37,0,*56
1491966468.67,19388,13.0,73262.5,-6.81,-32.91,-33.21,0,*5E
1491966469.9,19389,13.0,73262.3,-6.81,-33.03,-33.09,0,*5F
1491966471.14,19390,13.0,73274.0,-6.81,-33.09,-33.37,0,*50
1491966472.35,19391,13.0,73278.5,-6.81,-32.91,-33.21,0,*56
1491966473.59,19392,13.0,73266.8,-6.79,-32.35,-32.51,0,*5A
1491966474.79,19393,13.0,73262.3,-6.81,-32.23,-32.35,0,*59
1491966476.03,19394,13.0,73252.0,-6.81,-32.39,-32.75,0,*51
1491966477.28,19395,13.0,73254.0,-6.79,-32.69,-32.91,0,*58
1491966478.51,19396,13.0,73250.0,-6.81,-32.91,-33.27,0,*57
1491966479.78,19397,13.0,73246.3,-6.81,-33.09,-33.43,0,*54
1491966481.04,19398,13.0,73240.3,-6.79,-33.21,-33.43,0,*56
1491966482.31,19399,13.0,73252.5,-6.81,-33.09,-33.49,0,*50
1491966483.52,19400,13.0,73266.5,-6.81,-32.91,-33.37,0,*5E
1491966484.78,19401,13.0,73250.0,-6.79,-33.03,-33.27,0,*53
1491966486.05,19402,13.0,73252.5,-6.79,-33.03,-33.27,0,*50
1491966487.31,19403,13.0,73246.5,-6.81,-32.75,-33.09,0,*5A
1491966488.6,19404,13.0,73232.5,-6.79,-32.85,-33.09,0,*55
1491966489.86,19405,13.0,73230.3,-6.79,-32.85,-33.21,0,*5E
1491966491.13,19406,13.0,73232.5,-6.79,-32.69,-33.09,0,*55
1491966492.4,19407,13.0,73228.5,-6.79,-33.09,-33.37,0,*5E
1491966493.66,19408,13.0,73232.5,-6.81,-33.09,-33.49,0,*5F
1491966494.89,19409,13.0,73228.8,-6.81,-33.03,-33.49,0,*54
1491966496.17,19410,13.0,73238.8,-6.79,-33.27,-33.61,0,*57
1491966497.44,19411,13.0,73228.3,-6.79,-33.21,-33.49,0,*5A
1491966498.72,19412,13.0,73234.3,-6.79,-33.27,-33.61,0,*55
1491966499.98,19413,13.0,73238.5,-6.79,-33.21,-33.43,0,*52
1491966501.27,19414,13.0,73244.3,-6.79,-33.27,-33.43,0,*53
1491966502.51,19415,13.0,73238.5,-6.81,-33.03,-33.27,0,*51
1491966503.77,19416,13.0,73236.5,-6.79,-32.91,-33.09,0,*53
1491966505.07,19417,13.0,73244.3,-6.79,-33.09,-33.43,0,*5C
1491966506.31,19418,13.0,73248.0,-6.81,-33.21,-33.43,0,*5E
1491966507.57,19419,13.0,73250.5,-6.79,-33.21,-33.27,0,*5A